Temp
11 9 10 10 10 11 11 11 11 11 11 11 11 11 11 11 11 11 12 13 13 13 13 12 10 8 7 8 10 8 9 10 11 10 10 10 11 13 13 16 16 16 16 16 17 17 17
11 10 10 11 11 11 10 10 10 10 10 10 10 10 11 11 11 11 13 13 12 11 12 12 11 9 6 12 7 7 9 10 9 9 10 10 12 13 14 15 15 16 16 16 16 16 16
11 11 10 11 11 10 10 10 10 10 10 10 10 10 10 10 11 11 12 12 11 10 10 10 10 6 9 7 7 7 8 8 9 8 10 10 11 12 13 13 14 14 13 14 15 15 15
11 11 11 10 10 10 10 10 10 10 10 10 10 10 10 10 10 10 11 11 9 9 9 8 6 6 8 7 7 7 8 8 8 8 8 9 10 10 11 12 13 13 13 13 15 17 16
11 10 10 10 10 9 9 9 10 10 10 10 10 10 10 10 10 10 11 10 8 8 8 6 7 7 9 7 6 6 7 8 8 8 8 8 8 9 9 10 9 11 12 14 15 17 16
10 10 10 9 9 9 9 9 9 9 10 10 10 10 10 10 10 10 11 10 7 6 7 7 7 9 7 6 6 6 7 8 8 9 10 9 8 8 9 9 8 12 13 14 14 16 16
10 10 9 9 9 9 9 9 9 9 9 9 10 9 9 10 10 9 10 9 8 8 5 5 5 6 6 5 6 6 6 8 9 10 11 11 7 7 8 8 8 7 7 8 12 13 11
10 9 9 9 9 9 9 9 9 9 9 9 9 9 9 9 9 9 9 6 4 4 6 4 5 6 5 5 6 6 5 7 8 9 10 11 10 10 7 6 4 4 5 6 7 10 10
9 9 8 8 8 9 9 8 9 9 9 9 9 9 8 8 8 8 6 5 4 3 7 5 5 5 5 5 6 5 4 5 8 8 8 8 9 9 8 7 6 7 6 6 4 5 9
8 8 8 8 8 8 8 8 9 9 9 8 8 8 8 8 7 6 4 4 3 1 8 6 6 4 4 6 6 5 4 4 7 6 6 7 8 7 7 7 5 4 8 6 6 6 6
8 8 8 8 8 8 8 8 8 8 8 8 8 8 8 8 7 5 4 4 2 2 10 6 5 4 5 5 5 5 5 4 5 5 6 6 6 5 6 5 5 4 6 6 6 5 6
8 8 7 7 8 8 8 8 8 8 8 8 8 7 7 7 5 6 5 3 1 7 6 5 5 5 6 5 5 5 5 5 5 5 7 6 7 6 5 6 6 6 6 6 7 6 4
8 7 7 7 8 8 8 8 8 8 7 7 7 6 6 7 6 6 5 2 9 8 7 4 3 5 5 4 4 4 5 5 3 2 3 5 6 7 6 4 6 5 4 3 4 6 5
7 7 7 7 8 8 8 8 8 7 7 7 7 6 5 5 6 6 6 9 7 5 4 4 4 5 4 4 4 4 4 4 4 2 2 2 2 5 5 4 3 4 4 2 1 3 3
7 7 7 7 7 7 7 7 7 7 7 7 6 5 5 5 5 6 6 6 4 3 3 2 4 3 4 4 3 4 4 3 3 2 -1 0 1 3 5 5 4 4 3 4 2 3 4
7 6 7 6 7 7 7 7 7 7 7 7 6 4 4 5 5 6 7 3 3 2 2 3 2 3 2 3 2 3 3 4 2 2 1 0 -1 3 4 5 5 3 3 1 1 0 1
6 6 6 6 6 7 7 6 6 7 7 6 5 5 3 4 3 4 4 2 2 2 1 2 2 2 2 2 2 2 2 3 1 1 1 1 0 2 4 1 1 2 -1 -1 1 2 0
5 6 5 6 6 6 6 6 6 6 6 5 4 6 2 3 4 3 2 1 -0 2 2 2 2 2 1 1 0 2 2 2 -1 -0 -1 1 -1 -1 2 -1 -2 -4 -6 -4 -2 0 -0
5 6 5 5 6 6 6 5 6 5 5 4 2 2 1 3 4 2 1 1 1 1 1 1 1 1 0 0 -1 0 1 1 -1 -1 -2 -2 -1 -1 -1 -2 -1 -5 -6 -6 -6 -6 -3
5 5 5 5 5 5 5 5 5 5 4 3 3 4 2 1 1 2 1 0 0 0 1 0 1 -0 -1 -1 0 -1 -0 -0 -2 -2 -3 -3 -3 -4 -3 -5 -6 -7 -8 -8 -7 -4 -6
4 4 5 5 5 5 5 4 4 4 4 2 1 -0 -1 1 0 0 0 -1 -1 -1 -0 0 -0 -2 -3 -4 -3 -1 -2 -3 -2 -4 -3 -5 -3 -7 -8 -9 -9 -10 -10 -11 -11 -10 -9
4 4 4 5 5 4 4 4 4 4 3 1 -1 -1 -1 -2 -1 -0 -2 -3 -2 -2 -2 -2 -3 -4 -3 -5 -5 -7 -6 -5 -7 -6 -6 -7 -4 -7 -8 -9 -10 -12 -11 -11 -12 -13 -12
4 4 4 4 4 4 3 3 3 3 3 -0 -2 -2 -1 -2 -1 -1 -3 -3 -3 -4 -3 -4 -5 -5 -5 -6 -7 -7 -7 -9 -10 -10 -10 -8 -7 -5 -4 -8 -8 -8 -14 -13 -12 -14 -14
4 3 3 4 4 3 3 3 2 2 3 2 -2 -2 -2 -2 -1 -2 -4 -4 -5 -5 -6 -6 -5 -6 -6 -8 -8 -9 -10 -10 -11 -11 -11 -11 -9 -5 -6 -8 -7 -14 -13 -14 -14 -15 -15
3 3 3 3 3 3 2 2 1 1 1 1 -0 -2 -4 -4 -3 -4 -5 -6 -6 -7 -7 -6 -7 -8 -9 -7 -6 -5 -6 -7 -8 -8 -11 -12 -10 -6 -6 -7 -12 -12 -13 -15 -16 -14 -16
3 3 3 3 2 2 2 1 1 0 -0 -0 -1 -1 -3 -5 -6 -9 -7 -9 -7 -6 -4 -6 -8 -8 -8 -5 -4 -5 -6 -9 -7 -8 -8 -10 -10 -7 -7 -6 -8 -12 -14 -16 -16 -14 -16
3 3 2 2 2 2 1 1 -0 -0 -0 -1 -2 -2 -3 -8 -11 -10 -7 -8 -10 -9 -8 -8 -10 -9 -7 -4 -5 -6 -6 -11 -8 -10 -12 -11 -11 -10 -9 -9 -11 -14 -15 -17 -13 -13 -16
2 2 2 2 1 1 0 -0 -1 -1 -1 -1 -2 -2 -3 -9 -11 -11 -10 -11 -11 -11 -7 -10 -9 -8 -7 -6 -5 -7 -7 -10 -10 -13 -14 -14 -13 -10 -9 -9 -9 -14 -16 -15 -15 -17 -18
2 2 2 1 1 0 -0 -1 -1 -1 -1 -2 -2 -3 -3 -5 -10 -10 -10 -10 -10 -11 -12 -11 -10 -12 -11 -7 -8 -8 -8 -9 -11 -8 -15 -11 -14 -12 -13 -10 -15 -16 -15 -16 -16 -17 -17
Height
1516 1513 1510 1507 1504 1501 1497 1494 1491 1488 1486 1483 1479 1475 1471 1467 1463 1458 1454 1448 1444 1440 1436 1434 1432 1433 1436 1441 1443 1440 1438 1437 1436 1436 1437 1437 1437 1437 1431 1426 1427 1419 1418 1417 1415 1414 1413
1516 1513 1510 1507 1503 1500 1497 1495 1492 1489 1486 1483 1479 1475 1471 1467 1462 1457 1452 1447 1442 1439 1436 1433 1431 1433 1439 1441 1443 1441 1438 1436 1435 1434 1434 1434 1433 1431 1426 1420 1419 1412 1411 1408 1409 1410 1411
1515 1513 1510 1507 1503 1500 1498 1495 1493 1490 1487 1483 1479 1475 1470 1466 1462 1456 1450 1445 1441 1439 1436 1434 1433 1436 1441 1446 1444 1441 1437 1434 1432 1433 1433 1433 1433 1432 1425 1423 1418 1417 1410 1406 1404 1406 1404
1515 1513 1510 1507 1503 1500 1498 1496 1494 1491 1487 1483 1479 1475 1470 1465 1461 1456 1450 1445 1441 1439 1437 1435 1435 1439 1443 1444 1444 1440 1436 1433 1433 1431 1431 1432 1431 1429 1426 1423 1417 1415 1409 1401 1392 1390 1393
1515 1512 1509 1506 1503 1501 1499 1497 1495 1491 1488 1484 1479 1474 1470 1465 1460 1455 1449 1445 1443 1441 1438 1437 1440 1440 1445 1446 1442 1441 1438 1434 1430 1429 1429 1429 1429 1427 1426 1422 1419 1412 1396 1391 1382 1383 1388
1515 1512 1509 1506 1503 1502 1500 1498 1495 1491 1487 1484 1479 1474 1470 1465 1459 1455 1450 1445 1444 1443 1440 1440 1443 1446 1448 1448 1446 1442 1437 1435 1432 1430 1428 1428 1426 1424 1422 1421 1407 1398 1389 1382 1378 1379 1380
1514 1511 1509 1506 1504 1503 1501 1498 1495 1491 1488 1483 1478 1474 1469 1465 1460 1455 1451 1446 1449 1447 1445 1453 1456 1455 1454 1450 1446 1445 1438 1433 1432 1428 1422 1421 1425 1421 1418 1416 1412 1413 1410 1403 1387 1386 1395
1513 1511 1508 1506 1505 1503 1501 1498 1494 1491 1487 1482 1478 1474 1469 1464 1460 1457 1452 1451 1455 1456 1455 1456 1456 1456 1454 1450 1448 1446 1443 1439 1435 1429 1425 1420 1413 1413 1421 1422 1423 1420 1413 1405 1400 1395 1390
1512 1510 1507 1506 1505 1504 1501 1498 1494 1491 1487 1483 1477 1473 1468 1464 1460 1456 1454 1455 1454 1453 1454 1458 1458 1457 1455 1453 1452 1449 1446 1442 1436 1431 1427 1426 1418 1417 1418 1416 1415 1409 1410 1409 1415 1408 1389
1512 1509 1507 1507 1506 1503 1501 1498 1494 1490 1487 1482 1477 1472 1468 1465 1462 1458 1457 1455 1454 1454 1445 1461 1460 1463 1460 1451 1450 1452 1449 1449 1439 1436 1434 1425 1424 1423 1419 1416 1423 1418 1407 1409 1407 1407 1392
1511 1509 1507 1507 1505 1504 1501 1498 1494 1490 1486 1481 1477 1472 1468 1464 1464 1462 1460 1455 1454 1456 1432 1465 1464 1466 1462 1463 1461 1456 1453 1449 1443 1441 1437 1430 1427 1426 1420 1420 1421 1418 1411 1408 1404 1401 1396
1510 1508 1507 1506 1505 1503 1501 1497 1494 1489 1485 1481 1476 1472 1469 1466 1464 1462 1457 1454 1455 1445 1454 1466 1468 1466 1462 1461 1459 1458 1453 1449 1447 1442 1433 1430 1428 1426 1425 1424 1418 1412 1408 1400 1392 1388 1391
1509 1508 1507 1506 1505 1502 1500 1497 1493 1489 1484 1480 1476 1472 1469 1466 1465 1461 1456 1456 1443 1443 1465 1472 1473 1468 1463 1463 1461 1461 1455 1448 1454 1452 1443 1431 1425 1423 1426 1425 1416 1413 1411 1404 1386 1369 1372
1508 1507 1506 1505 1503 1501 1499 1496 1492 1488 1483 1480 1475 1473 1470 1467 1465 1460 1456 1452 1455 1471 1475 1478 1476 1471 1468 1467 1466 1463 1458 1452 1454 1459 1452 1445 1437 1426 1428 1427 1424 1417 1411 1414 1411 1383 1381
1507 1506 1506 1504 1502 1500 1497 1495 1491 1487 1482 1478 1474 1472 1470 1467 1464 1460 1458 1459 1478 1483 1487 1483 1473 1471 1470 1471 1471 1464 1460 1458 1461 1464 1468 1454 1441 1435 1427 1425 1423 1414 1411 1410 1408 1394 1380
1506 1506 1504 1503 1501 1499 1496 1493 1489 1485 1481 1476 1473 1473 1470 1468 1464 1462 1461 1480 1484 1489 1488 1486 1478 1478 1475 1472 1472 1465 1461 1459 1465 1466 1468 1460 1454 1433 1424 1421 1417 1418 1418 1416 1412 1410 1400
1505 1504 1504 1502 1500 1498 1495 1492 1488 1484 1480 1475 1473 1474 1474 1470 1468 1467 1471 1485 1489 1491 1490 1488 1485 1482 1478 1475 1474 1468 1465 1464 1469 1467 1467 1461 1453 1434 1423 1431 1427 1419 1432 1432 1424 1411 1408
1503 1504 1503 1500 1499 1497 1494 1491 1486 1482 1479 1475 1475 1476 1476 1472 1475 1479 1486 1492 1494 1491 1490 1489 1487 1483 1480 1480 1477 1469 1466 1467 1474 1472 1466 1459 1455 1443 1428 1444 1446 1450 1461 1455 1438 1416 1416
1502 1503 1500 1499 1498 1496 1493 1490 1486 1482 1478 1476 1479 1482 1480 1476 1476 1486 1493 1493 1494 1493 1491 1490 1489 1488 1490 1484 1481 1473 1469 1471 1474 1473 1469 1465 1450 1442 1437 1445 1441 1460 1468 1466 1461 1457 1434
1501 1500 1499 1498 1497 1494 1492 1489 1485 1481 1478 1478 1481 1482 1486 1485 1490 1490 1492 1495 1493 1495 1491 1492 1491 1493 1492 1488 1483 1479 1473 1475 1477 1474 1473 1467 1461 1463 1455 1467 1469 1474 1477 1472 1462 1444 1454
1498 1498 1498 1497 1496 1493 1491 1488 1484 1481 1479 1479 1482 1490 1491 1491 1495 1496 1496 1499 1499 1497 1494 1493 1492 1497 1498 1497 1490 1479 1483 1484 1477 1478 1474 1474 1460 1474 1481 1484 1482 1486 1488 1487 1482 1482 1470
1497 1497 1497 1496 1494 1492 1489 1486 1484 1480 1479 1479 1484 1488 1493 1497 1499 1498 1501 1503 1502 1501 1499 1497 1500 1502 1497 1500 1504 1500 1495 1491 1494 1483 1479 1479 1465 1475 1479 1486 1488 1494 1493 1491 1496 1495 1492
1495 1495 1494 1494 1492 1490 1487 1485 1482 1480 1478 1479 1482 1487 1490 1499 1500 1500 1504 1507 1504 1504 1501 1504 1505 1503 1500 1503 1503 1499 1496 1498 1501 1497 1492 1486 1479 1465 1451 1479 1480 1473 1507 1503 1500 1506 1504
1493 1493 1493 1492 1491 1488 1486 1484 1482 1480 1479 1478 1480 1485 1490 1499 1499 1502 1506 1507 1506 1505 1506 1505 1504 1504 1503 1503 1501 1500 1500 1500 1500 1500 1498 1493 1486 1466 1467 1480 1466 1509 1509 1509 1508 1508 1507
1490 1491 1491 1490 1489 1487 1486 1484 1483 1481 1480 1480 1480 1484 1488 1500 1501 1503 1506 1507 1505 1504 1505 1505 1504 1504 1501 1501 1497 1491 1490 1494 1495 1495 1497 1497 1490 1472 1465 1470 1501 1502 1508 1512 1512 1501 1506
1488 1489 1489 1488 1487 1486 1485 1484 1484 1483 1482 1482 1483 1485 1487 1496 1506 1507 1507 1508 1506 1504 1501 1503 1504 1501 1500 1496 1491 1492 1495 1507 1495 1496 1494 1496 1490 1480 1475 1468 1473 1504 1510 1513 1514 1498 1505
1486 1487 1487 1487 1486 1485 1485 1484 1484 1484 1484 1485 1485 1487 1489 1497 1507 1508 1507 1508 1507 1507 1505 1505 1504 1501 1499 1495 1497 1500 1498 1517 1505 1507 1509 1501 1501 1496 1490 1486 1498 1509 1512 1513 1499 1501 1504
1484 1485 1485 1485 1485 1484 1485 1485 1485 1485 1485 1486 1487 1489 1490 1496 1507 1508 1507 1509 1508 1508 1504 1506 1506 1503 1502 1499 1498 1505 1505 1516 1516 1523 1523 1522 1516 1498 1494 1490 1489 1508 1511 1508 1503 1502 1502
1482 1483 1483 1484 1483 1484 1485 1485 1486 1486 1486 1488 1488 1491 1493 1494 1508 1509 1509 1508 1507 1506 1506 1506 1508 1509 1510 1506 1509 1510 1508 1513 1519 1502 1526 1511 1522 1515 1514 1498 1503 1503 1502 1501 1500 1499 1499
Wind_Speed
16 15 17 16 18 19 19 18 18 20 21 22 23 24 26 26 25 26 27 27 23 18 16 13 10 6 4 2 2 9 12 12 11 6 16 19 23 25 27 14 27 30 27 37 36 29 31
17 16 17 17 18 18 17 17 18 19 21 23 25 26 27 26 25 29 29 28 21 15 13 13 9 5 3 3 9 15 13 13 6 8 13 18 15 24 19 25 26 18 20 26 34 32 37
16 16 17 18 18 16 14 15 18 20 22 23 25 26 28 28 26 30 30 27 15 12 13 12 10 10 7 6 11 19 17 16 11 11 16 16 20 13 10 20 29 27 28 25 26 25 21
16 16 17 17 16 13 13 15 17 19 22 24 24 27 29 30 28 31 31 24 13 15 15 13 13 4 6 9 14 20 23 14 8 9 13 14 14 23 26 24 28 21 22 21 12 20 27
15 16 16 15 13 11 12 14 17 19 21 24 26 27 29 30 29 31 31 18 11 14 14 12 7 2 4 8 18 21 23 19 14 8 10 11 11 17 12 17 16 15 24 25 23 19 11
15 15 15 13 9 10 12 14 16 19 22 24 26 27 29 30 28 29 29 12 8 18 10 8 11 3 14 18 14 25 23 19 12 11 9 11 8 9 7 9 17 18 21 22 26 18 19
14 14 13 9 8 9 11 14 17 20 22 24 26 27 29 29 24 28 27 8 8 0 22 11 9 11 18 20 5 26 30 19 17 9 10 6 4 8 15 14 19 17 17 26 28 24 16
12 12 10 6 7 9 12 15 17 20 23 25 26 27 28 26 21 26 27 14 8 4 3 9 8 15 13 17 14 23 28 15 14 12 13 12 16 9 10 10 10 12 13 16 16 19 19
11 11 7 6 7 10 13 15 17 20 23 25 25 27 28 23 17 27 24 20 11 3 1 5 7 19 21 15 16 23 26 16 11 13 13 13 17 16 14 15 15 17 13 11 10 17 14
10 9 5 5 7 10 13 15 18 21 23 24 25 27 26 23 12 20 12 20 7 4 5 6 9 11 19 9 0 18 23 11 8 11 12 9 15 16 14 16 7 13 13 14 15 9 6
8 6 3 4 7 10 12 15 18 21 22 23 25 25 21 21 15 11 23 14 4 2 3 6 6 9 14 19 15 20 20 11 9 15 8 13 13 14 12 11 13 18 14 16 17 17 17
6 4 2 3 6 9 12 15 18 20 22 23 24 21 17 22 13 22 23 8 2 4 3 5 5 15 15 20 14 21 22 11 4 17 13 15 12 5 9 15 18 14 15 20 21 17 15
6 3 2 3 6 10 13 15 17 19 21 22 22 15 18 20 20 23 21 1 4 5 7 8 10 15 12 16 16 18 18 13 11 12 15 18 11 8 4 20 17 15 16 10 11 11 11
5 2 2 4 8 11 13 15 18 20 22 21 20 11 19 18 19 22 14 4 7 4 7 12 14 12 10 16 13 14 17 11 12 14 14 12 15 14 22 15 11 20 12 6 7 12 9
3 3 3 5 8 11 13 16 18 21 22 20 16 4 19 17 17 15 7 6 5 6 6 10 13 7 9 12 9 14 13 9 11 11 11 12 12 23 17 12 14 11 11 15 11 18 15
5 4 3 5 8 11 14 17 19 21 20 19 9 2 23 19 16 9 5 5 3 5 7 8 7 5 12 13 11 14 9 7 8 12 15 8 16 14 9 16 5 9 7 6 6 6 9
5 5 4 5 8 11 15 18 20 19 19 15 4 1 20 15 13 12 5 4 3 5 7 5 7 9 12 12 13 14 7 8 10 14 14 19 8 16 18 7 11 8 4 6 7 8 7
5 6 4 5 8 11 15 18 19 19 16 7 5 2 20 12 10 6 6 3 2 6 6 3 6 7 10 16 10 13 9 9 13 17 19 13 5 11 20 14 17 19 8 6 4 8 7
7 6 3 5 9 12 14 17 17 17 14 6 4 4 16 9 5 7 6 5 3 7 6 6 5 8 12 11 8 7 9 15 20 18 8 8 4 10 3 4 9 7 14 10 8 5 4
8 4 3 5 8 12 14 14 16 14 9 5 3 1 8 13 11 6 6 5 5 5 2 8 6 8 12 8 11 9 13 11 22 13 17 12 1 4 5 4 7 5 13 16 6 4 6
7 5 3 5 8 12 13 14 14 11 6 5 4 3 2 3 7 6 5 4 5 6 5 6 5 11 10 4 11 8 9 16 13 14 12 7 2 4 7 8 12 10 10 13 15 10 4
8 5 4 5 9 11 13 14 11 9 3 5 4 5 6 7 3 6 4 4 5 6 3 6 6 11 10 3 7 12 14 9 6 11 11 10 2 3 5 8 10 15 14 7 8 8 6
9 6 4 6 9 10 12 13 10 8 1 4 8 12 8 2 2 1 3 4 4 6 1 6 6 8 4 10 15 14 3 11 6 7 9 7 5 4 1 11 6 4 10 10 3 6 6
9 6 5 6 7 8 10 9 8 7 5 9 12 10 6 3 3 3 3 4 5 3 2 7 7 3 5 13 1 3 4 5 4 8 11 5 5 4 3 6 4 3 2 4 4 2 3
9 6 5 6 6 7 7 6 6 7 9 9 16 7 6 4 4 4 4 4 1 2 1 4 4 5 12 4 4 4 5 4 5 5 9 7 4 1 3 2 3 3 4 4 4 1 1
9 6 5 5 5 5 3 4 6 7 10 7 12 10 10 10 3 1 2 4 2 3 2 1 3 6 8 3 2 3 4 5 5 12 8 7 7 3 3 4 4 4 4 1 1 3 4
9 6 5 4 3 1 3 5 6 7 9 9 13 10 7 10 3 3 1 2 2 1 2 3 8 8 9 3 3 3 3 1 4 8 8 7 5 7 7 2 2 3 1 4 3 3 2
8 6 5 3 2 3 5 6 7 7 9 10 13 12 4 10 7 5 3 2 2 1 2 4 2 3 4 3 2 2 2 2 2 0 3 3 4 4 3 3 2 6 5 4 1 4 5
8 7 5 4 5 7 8 7 7 7 8 8 14 15 15 10 12 13 11 9 6 3 3 4 4 2 2 1 1 1 1 3 1 2 3 1 2 3 3 3 2 7 10 11 13 9 9
Wind_Direction
355 356 357 357 358 1 6 16 27 25 26 22 17 15 12 9 5 0 355 348 346 345 348 339 305 271 69 185 21 319 337 313 301 251 212 210 212 220 229 241 240 243 253 260 265 269 264
352 356 355 354 358 6 14 32 32 29 25 19 15 12 10 9 5 360 355 351 351 360 3 4 1 103 125 124 7 343 329 326 304 238 224 218 227 230 255 244 252 258 271 277 262 270 262
350 352 352 353 0 12 34 35 32 27 22 17 14 10 7 6 4 360 357 352 2 13 7 17 69 90 79 69 12 2 353 328 276 252 247 241 238 247 247 261 262 273 273 269 261 257 248
346 348 351 356 4 25 37 33 28 23 18 15 11 8 5 3 1 0 359 354 6 13 23 48 73 60 85 10 3 4 356 356 326 283 253 252 251 251 252 265 279 268 264 264 255 250 241
344 347 352 360 14 39 36 28 23 18 15 10 8 5 2 0 358 1 360 355 22 23 27 45 32 62 62 353 3 2 0 342 328 302 262 253 254 243 249 249 264 257 261 261 265 242 235
342 349 352 3 34 35 29 22 17 14 11 8 5 1 359 358 357 360 2 4 6 36 17 46 22 121 31 353 353 357 357 350 340 319 280 233 231 232 246 236 250 260 252 255 261 256 257
342 347 354 10 35 31 24 17 14 11 6 2 3 0 356 355 357 359 6 25 3 304 50 68 48 41 342 344 6 7 0 351 349 308 290 302 313 272 275 282 276 288 279 281 283 279 296
341 349 358 36 37 26 18 13 10 6 3 360 358 357 355 354 355 359 10 45 28 327 89 48 59 29 12 360 2 6 2 8 339 328 310 278 259 312 319 314 330 327 315 298 282 283 286
338 350 12 41 28 20 14 9 5 2 360 357 355 354 355 355 354 1 11 14 6 29 287 62 39 22 6 343 30 7 6 346 336 327 338 304 295 343 322 316 326 302 297 308 323 326 283
336 353 24 35 21 15 10 4 0 358 357 355 353 352 354 358 8 2 357 352 6 128 221 30 15 18 357 344 303 358 1 349 329 335 330 289 352 321 311 288 328 308 319 310 299 299 279
339 350 25 22 11 8 4 0 359 355 354 353 351 351 355 2 360 3 342 348 22 125 264 18 22 358 354 28 334 358 353 352 336 338 298 326 331 321 311 355 327 304 300 293 283 276 275
333 341 10 7 358 1 359 358 357 353 350 351 349 350 352 2 8 347 344 354 70 236 44 13 6 349 351 13 10 353 357 12 323 327 312 330 299 283 343 333 311 301 304 297 275 256 251
318 316 333 348 350 355 356 356 353 350 348 348 347 349 1 13 359 343 343 356 256 33 351 0 340 345 349 3 360 2 351 2 16 341 342 315 325 317 8 335 322 343 321 297 292 242 242
309 289 309 336 347 349 351 352 350 347 346 346 343 343 15 20 351 341 337 248 56 23 14 351 340 332 0 3 352 347 343 348 15 4 322 345 318 342 339 311 304 309 295 290 293 304 305
285 267 296 334 341 343 350 349 348 346 344 343 341 27 18 8 358 346 302 46 27 14 355 335 319 343 352 1 336 342 345 6 14 12 354 311 307 317 302 321 300 307 295 320 283 269 274
256 256 299 327 338 343 347 347 348 346 344 341 347 128 14 4 360 17 60 88 82 23 335 323 349 346 331 342 338 342 339 5 356 2 353 313 307 301 298 308 275 299 10 333 340 310 316
240 263 295 329 341 345 344 347 347 348 347 345 48 45 0 359 35 53 65 75 73 16 2 327 332 311 330 330 325 320 316 11 6 338 327 313 279 293 303 1 333 343 35 352 304 278 297
234 261 288 336 337 344 345 346 349 350 355 7 45 36 357 50 45 56 59 29 357 3 349 334 296 306 333 328 311 305 326 354 14 343 325 321 297 291 305 102 76 65 19 356 295 320 319
233 251 303 327 333 341 350 349 351 355 360 50 72 45 20 52 67 85 110 78 50 2 356 5 314 348 356 320 318 317 338 347 357 340 323 336 273 302 167 149 71 49 14 349 280 265 282
230 247 284 319 333 340 349 354 357 0 4 82 97 96 42 49 59 91 99 49 24 0 6 356 316 360 348 329 324 296 326 346 333 346 333 317 52 23 321 352 318 22 16 12 344 294 344
222 233 272 312 331 342 347 359 359 3 10 97 73 81 31 70 59 81 77 15 14 5 11 350 342 11 346 299 333 348 342 335 337 4 347 8 337 85 74 68 76 61 31 24 42 13 359
218 224 266 312 334 341 348 357 360 3 28 106 111 132 88 99 86 88 25 23 4 353 345 338 347 339 337 30 346 303 312 326 35 320 358 347 334 128 167 132 105 76 35 33 31 10 67
213 227 265 310 335 343 348 353 3 15 78 109 113 118 115 78 115 144 69 340 336 351 292 62 333 332 8 358 325 311 310 79 71 10 343 340 314 225 207 176 240 204 15 10 30 26 328
211 227 273 313 334 342 343 356 17 41 87 149 136 128 110 102 97 70 31 335 328 348 276 312 347 8 10 333 176 98 115 139 86 50 31 330 305 303 80 179 245 73 35 311 329 282 353
210 229 274 312 328 334 345 17 50 71 97 135 141 127 113 113 105 128 21 348 63 39 257 268 349 325 321 316 249 240 201 219 181 42 41 31 307 321 295 34 100 165 20 345 358 236 204
208 233 274 296 316 328 360 83 85 99 112 133 138 132 116 128 63 31 344 27 17 347 188 212 341 349 355 265 316 351 14 327 320 343 62 11 342 359 15 320 350 28 27 136 312 248 183
211 236 258 272 297 308 119 109 107 115 124 144 134 143 127 102 62 91 332 356 350 287 279 333 339 359 8 28 49 11 44 325 328 341 339 345 355 23 10 18 146 101 127 133 290 45 257
214 232 232 245 234 150 141 132 123 125 132 149 137 151 152 108 117 117 123 196 187 163 346 350 234 48 10 68 10 56 345 51 257 358 346 319 329 3 297 341 333 157 160 227 71 264 262
216 216 219 208 177 163 152 141 140 139 145 152 137 136 130 103 128 106 90 83 83 124 141 27 102 96 63 151 97 154 156 194 322 13 170 246 283 303 275 331 156 208 245 250 271 260 266